Regional Weather Roundup
Issued by NWS Charleston, WV

Home | Current Version | Previous Version | Graphics & Text | Print | Product List | Glossary On
Versions: 1 2 3 4 5 6 7 8 9 10 11 12 13 14 15 16 17 18 19 20 21 22 23 24 25 26 27 28 29 30 31 32 33 34 35 36 37 38 39 40 41 42 43 44 45 46 47 48 49 50
000
ASUS41 KRLX 102310
RWRRLX
West Virginia Regional Weather Roundup
National Weather Service Charleston WV
600 PM EST SAT DEC 10 2016

Note: "fair" indicates few or no clouds below 12,000 feet with no
significant weather and/or obstructions to visibility.

WVZ003-110000-
Northern Panhandle of West Virginia

CITY           SKY/WX    TMP DP  RH WIND       PRES   REMARKS
WHEELING       FLURRIES  24  15  68 W6        30.46R
$$

WVZ009-110000-
Northwest West Virginia

CITY           SKY/WX    TMP DP  RH WIND       PRES   REMARKS
PARKERSBURG    CLOUDY    27  13  55 CALM      30.52R
$$

WVZ006-110000-
Western West Virginia

CITY           SKY/WX    TMP DP  RH WIND       PRES   REMARKS
HUNTINGTON     CLEAR     29  12  49 CALM      30.48F
$$

WVZ015-110000-
West Central West Virginia

CITY           SKY/WX    TMP DP  RH WIND       PRES   REMARKS
CHARLESTON     PTCLDY    28  13  53 CALM      30.48F
$$

WVZ022-031-110000-
North Central West Virginia

CITY           SKY/WX    TMP DP  RH WIND       PRES   REMARKS
CLARKSBURG     PTCLDY    22  14  71 SW5       30.48R
MORGANTOWN     CLOUDY    25  12  58 W5        30.47R
$$

WVZ025-035-042-045-110000-
Southern West Virginia

CITY           SKY/WX    TMP DP  RH WIND       PRES   REMARKS
BECKLEY        CLEAR     24   9  52 W5        30.40R
LOGAN            N/A     27  12  54 CALM      30.43F
BLUEFIELD      CLEAR     24   6  46 W6        30.38S
LEWISBURG      CLEAR     26  10  52 CALM      30.39S
$$

WVZ047-110000-
Northern Mountains of West Virginia

CITY           SKY/WX    TMP DP  RH WIND       PRES   REMARKS
ELKINS         CLEAR     19  10  68 CALM      30.43R
$$

WVZ052-110000-
Eastern Panhandle of West Virginia

CITY           SKY/WX    TMP DP  RH WIND       PRES   REMARKS
MARTINSBURG    CLEAR     27  11  51 NW6       30.49R
PETERSBURG     CLEAR     25  15  66 W8        30.49R
$$



USA.gov is the U.S. government's official web portal to all federal, state and local government web resources and services.